STARLINK-11094, 59714

Orbit data source: Space-Track

STARLINK-11094, 59714 is a payload satellite owned by SpaceX/Seattle (US) in LEO that was launched on Fri, 10 May 2024 UTC via an FALCON 9 launch vehicle from the Air Force Western Test Range (AFWTR). Payload-class satellites include a variety of spacecraft equipped with specific instruments for various scientific and technological missions. These include communications satellites like Starlink; space stations such as the ISS; scientific satellites like the Hubble; Earth observation satellites from companies like Planet Labs, Umbra, and HawkEye 360; GPS; miniature CubeSats for education and research; and military/defense satellites.

Loading next visibility...
Identifier
59714, 2024-088G
Orbit
LEO
Country
Flag of USUS
Related business
Manufacturer
SpaceX/Seattle
Mission
Operational Commercial Communications
Bus & Motor
STARLINK V2MD, Unknown motor
Mass
960 kg wet, ~910 kg dry
Launch date (UTC)
2024-05-10 (2 years ago)
Launch vehicle
FALCON 9
Launch site
Air Force Western Test Range (AFWTR)
Object type
Payload
Rocket body
Debris
Shape & HBR
Box + 2 Pan, 18.1 m
Radar Cross Section
36.964 m², Large (>1 m²)

Expand to show TLE details & history
Last TLE update: 15 hours ago

TLE from 15 hours ago
0 STARLINK-11094
1 59714U 24088G   25346.85568940  .00003462  00000-0  33415-4 0  9998
2 59714  53.1589  34.3628 0000873 100.5514 259.5603 15.69711715 92632
Epoch: 2025-12-12T20:32Z
TLE epoch observation values (Epoch: 2025-12-12T20:32:11.564Z)
Latitude
0.00005°
Longitude
4.52334°
Altitude
360.743 km
Speed
7.694 km/s
True Right ascension
02h 17m 27s
True Declination
0° 00' 00"
Sunlit
Object was in full shadow at epoch
Visualization orbit readout
Latitude
Unknown
Longitude
Unknown
Altitude
Unknown
Speed
Unknown
Apparent Right ascension
Unknown
Apparent Declination
Unknown
Sunlit
N/A
Visualization observer readout
Local Sidereal Time
09:40:35
Azimuth
Unknown
Elevation
Unknown
Doppler factor
Unknown
Orbital elements
Apogee altitude
360.571 km
Perigee altitude
359.394 km
Semi-major axis
6,738.12 km
Eccentricity
0.00009
Inclination
53.1589°
RAAN
34.3628°
Arg. of periapsis
100.5514°
True anomaly
259.55046°
Mean anomaly
259.5603°
Eccentric anomaly
259.55538°
Mean motion
3.92406 °/min
Orbital period
91.74 mins
BSTAR
0.000033415
Loading maneuver chart data...
Computing Atmospheric mass density...
Loading historical data...
Loading historical data...
Loading historical data...
Loading historical data...
Loading historical data...
Loading historical data...
Loading historical data...

Documentation

Showing up to 5 results
|